DIWATA-2B

Last updated on Mon Sep 21 2026 00:03:14 GMT+0000 (Coordinated Universal Time)

1 43678U 18084H 26263.58970030 .00001075 00000+0 89930-4 0 9995 2 43678 98.1173 103.9983 0012008 208.6707 151.3857 15.00740187430520
UTC large
Height (km)
Speed (km/s)
/
Latitude / Longitude
Inclination (degrees)
Orbital Period (minutes)
Azimuth
Elevation
Range (km)
Doppler Factor

Next 0 passes for location: London (51.5072 / 0.1276)

No passes found over London.
DIWATA-2B